User: anonymous   Login
Location: Bouchavesnes-Bergen
(49.9859°N, 2.9203°E)
Time: 16:57:49
(UTC+00:00)
Language:

SJ-6F - Orbit

View from above orbital plane
View from above orbital plane
View from above satellite
View from above satellite

Ground track
Ground track

The orbit data is extracted from the following two-line orbital elements,

1 33409U 08053B   21125.92643873 -.00000043  00000-0  14198-5 0  9994
2 33409  97.7895 106.6290 0016851 147.6882 212.5360 14.95075296682954
Epoch (UTC): 05 May 2021 22:14:04
Eccentricity: 0.0016851
inclination: 97.7895°
perigee height: 570 km
apogee height: 594 km
right ascension of ascending node: 106.6290°
argument of perigee: 147.6882°
revolutions per day: 14.95075296
mean anomaly at epoch: 212.5360°
orbit number at epoch: 68295

The dashed part of the orbit path shows where the satellite is in the earth's shadow,  

DLR